When you browse on this site, cookies collect data to enhance your experience and personalize the content and advertising you see.
Visit our Privacy Policy to learn more. By continuing to use the site, you agree to this use of cookies and data.
  • In Spain
  • List of Countries
  • For 7 days
  • Water Temperature
  • Weather Map
  • Weather Widgets
  • user-avatar
    Login

    Hourly Weather Thimphu

    Today, 13 December, Friday

    Time Temperature Precipitation Wind Pressure Humidity
    00:00 0°C° 0 mm 1 mps 521 mmHg 84%
    01:00 0°C° 0 mm 1 mps 520 mmHg 82%
    02:00 0°C° 0 mm 1 mps 520 mmHg 81%
    03:00 0°C° 0 mm 1 mps 520 mmHg 79%
    04:00 0°C° 0 mm 1 mps 520 mmHg 78%
    05:00 0°C° 0 mm 1 mps 520 mmHg 77%
    06:00 0°C° 0 mm 1 mps 520 mmHg 81%
    07:00 +2°C° 0 mm 1 mps 522 mmHg 74%
    08:00 +3°C° 0 mm 1 mps 524 mmHg 66%
    09:00 +5°C° 0 mm 1 mps 525 mmHg 59%
    10:00 +5°C° 0.1 mm 2 mps 526 mmHg 57%
    11:00 +6°C° 0.1 mm 2 mps 526 mmHg 54%
    12:00 +7°C° 0.1 mm 2 mps 526 mmHg 52%
    13:00 +6°C° 0.4 mm 2 mps 525 mmHg 60%
    14:00 +5°C° 0.4 mm 2 mps 524 mmHg 68%
    15:00 +5°C° 0.4 mm 1 mps 522 mmHg 75%
    16:00 +3°C° 0.7 mm 1 mps 522 mmHg 82%
    17:00 +2°C° 0.7 mm 1 mps 521 mmHg 88%
    18:00 +1°C° 0.7 mm 1 mps 521 mmHg 95%
    19:00 +1°C° 0.6 mm 1 mps 521 mmHg 95%
    20:00 +1°C° 0.6 mm 1 mps 522 mmHg 95%
    21:00 -1°C° 0.6 mm 0 mps 522 mmHg 95%
    22:00 -1°C° 0.7 mm 0 mps 522 mmHg 96%
    23:00 -2°C° 0.7 mm 0 mps 521 mmHg 97%

    Tomorrow, 14 December, Saturday

    Time Temperature Precipitation Wind Pressure Humidity
    00:00 -2°C° 0.7 mm 0 mps 521 mmHg 97%
    01:00 -2°C° 0.3 mm 0 mps 521 mmHg 97%
    02:00 -2°C° 0.3 mm 0 mps 521 mmHg 97%
    03:00 -2°C° 0.3 mm 0 mps 521 mmHg 97%
    04:00 -2°C° 0.1 mm 0 mps 520 mmHg 97%
    05:00 -2°C° 0.1 mm 1 mps 520 mmHg 96%
    06:00 -2°C° 0.1 mm 1 mps 520 mmHg 96%
    07:00 -1°C° 0 mm 1 mps 521 mmHg 92%
    08:00 +1°C° 0 mm 1 mps 522 mmHg 88%
    09:00 +2°C° 0 mm 0 mps 524 mmHg 84%
    10:00 +3°C° 0.1 mm 1 mps 523 mmHg 83%
    11:00 +3°C° 0.1 mm 2 mps 523 mmHg 82%
    12:00 +4°C° 0.1 mm 2 mps 523 mmHg 81%
    13:00 +4°C° 0.3 mm 2 mps 523 mmHg 83%
    14:00 +3°C° 0.3 mm 2 mps 522 mmHg 84%
    15:00 +3°C° 0.3 mm 2 mps 522 mmHg 86%
    16:00 +3°C° 0.2 mm 1 mps 521 mmHg 89%
    17:00 +1°C° 0.2 mm 1 mps 520 mmHg 92%
    18:00 -1°C° 0.2 mm 0 mps 519 mmHg 95%
    19:00 -1°C° 0 mm 1 mps 519 mmHg 94%
    20:00 -1°C° 0 mm 1 mps 520 mmHg 92%
    21:00 -2°C° 0 mm 1 mps 520 mmHg 90%
    22:00 -2°C° 0 mm 1 mps 519 mmHg 89%
    23:00 -5°C° 0 mm 2 mps 519 mmHg 88%

    Day after tomorrow, 15 December, Sunday

    Time Temperature Precipitation Wind Pressure Humidity
    00:00 -5°C° 0 mm 2 mps 519 mmHg 86%
    01:00 -6°C° 0 mm 2 mps 518 mmHg 85%
    02:00 -6°C° 0 mm 2 mps 518 mmHg 83%
    03:00 -6°C° 0 mm 2 mps 518 mmHg 82%
    04:00 -6°C° 0 mm 2 mps 518 mmHg 81%
    05:00 -7°C° 0 mm 2 mps 518 mmHg 80%
    06:00 -7°C° 0 mm 2 mps 517 mmHg 79%
    07:00 -2°C° 0 mm 1 mps 519 mmHg 74%
    08:00 0°C° 0 mm 1 mps 521 mmHg 69%
    09:00 +2°C° 0 mm 0 mps 523 mmHg 65%
    10:00 +4°C° 0 mm 1 mps 523 mmHg 62%
    11:00 +5°C° 0 mm 1 mps 524 mmHg 60%
    12:00 +5°C° 0 mm 2 mps 524 mmHg 57%
    13:00 +5°C° 0.2 mm 2 mps 523 mmHg 61%
    14:00 +5°C° 0.2 mm 2 mps 522 mmHg 65%
    15:00 +4°C° 0.2 mm 2 mps 522 mmHg 69%
    16:00 +2°C° 0.2 mm 2 mps 521 mmHg 78%
    17:00 +1°C° 0.2 mm 1 mps 520 mmHg 87%
    18:00 -1°C° 0.2 mm 1 mps 518 mmHg 95%
    19:00 -1°C° 0.1 mm 1 mps 518 mmHg 93%
    20:00 -2°C° 0.1 mm 1 mps 519 mmHg 91%
    21:00 -3°C° 0.1 mm 1 mps 519 mmHg 89%
    22:00 -3°C° 0.1 mm 1 mps 518 mmHg 89%
    23:00 -3°C° 0.1 mm 1 mps 518 mmHg 90%

    16 December, Monday

    Time Temperature Precipitation Wind Pressure Humidity
    00:00 -4°C° 0.1 mm 1 mps 518 mmHg 90%
    01:00 -6°C° 0 mm 2 mps 518 mmHg 88%
    02:00 -6°C° 0 mm 2 mps 518 mmHg 87%
    03:00 -7°C° 0 mm 2 mps 517 mmHg 86%
    04:00 -7°C° 0 mm 2 mps 517 mmHg 83%
    05:00 -7°C° 0 mm 2 mps 517 mmHg 81%
    06:00 -7°C° 0 mm 2 mps 517 mmHg 79%
    07:00 -5°C° 0 mm 2 mps 519 mmHg 71%
    08:00 0°C° 0 mm 1 mps 521 mmHg 62%
    09:00 +1°C° 0 mm 0 mps 523 mmHg 54%
    10:00 +4°C° 0 mm 1 mps 523 mmHg 51%
    11:00 +5°C° 0 mm 1 mps 524 mmHg 47%
    12:00 +5°C° 0 mm 2 mps 524 mmHg 44%
    13:00 +5°C° 0 mm 2 mps 524 mmHg 49%
    14:00 +5°C° 0 mm 2 mps 523 mmHg 54%
    15:00 +4°C° 0 mm 2 mps 523 mmHg 59%
    16:00 +3°C° 0 mm 1 mps 521 mmHg 70%
    17:00 +1°C° 0 mm 1 mps 520 mmHg 81%
    18:00 -2°C° 0 mm 1 mps 519 mmHg 92%
    19:00 -2°C° 0 mm 1 mps 519 mmHg 90%
    20:00 -2°C° 0 mm 1 mps 519 mmHg 88%
    21:00 -2°C° 0 mm 1 mps 520 mmHg 86%
    22:00 -2°C° 0 mm 1 mps 519 mmHg 85%
    23:00 -3°C° 0 mm 1 mps 519 mmHg 83%

    17 December, Tuesday

    Time Temperature Precipitation Wind Pressure Humidity
    00:00 -3°C° 0 mm 1 mps 519 mmHg 81%
    01:00 -6°C° 0 mm 2 mps 518 mmHg 80%
    02:00 -6°C° 0 mm 2 mps 518 mmHg 79%
    03:00 -7°C° 0 mm 2 mps 517 mmHg 78%
    04:00 -7°C° 0 mm 2 mps 517 mmHg 77%
    05:00 -7°C° 0 mm 2 mps 517 mmHg 75%
    06:00 -8°C° 0 mm 2 mps 517 mmHg 74%
    07:00 -3°C° 0 mm 1 mps 519 mmHg 67%
    08:00 -1°C° 0 mm 1 mps 521 mmHg 60%
    09:00 +1°C° 0 mm 0 mps 522 mmHg 53%
    10:00 +3°C° 0 mm 1 mps 523 mmHg 51%
    11:00 +4°C° 0 mm 1 mps 523 mmHg 49%
    12:00 +4°C° 0 mm 2 mps 523 mmHg 47%
    13:00 +4°C° 0.1 mm 2 mps 522 mmHg 53%
    14:00 +3°C° 0.1 mm 2 mps 522 mmHg 58%
    15:00 +3°C° 0.1 mm 2 mps 521 mmHg 64%
    16:00 +1°C° 0.2 mm 2 mps 520 mmHg 74%
    17:00 0°C° 0.2 mm 1 mps 519 mmHg 84%
    18:00 -2°C° 0.2 mm 1 mps 518 mmHg 95%
    19:00 -3°C° 0.2 mm 1 mps 518 mmHg 93%
    20:00 -3°C° 0.2 mm 1 mps 518 mmHg 91%
    21:00 -4°C° 0.2 mm 1 mps 518 mmHg 90%
    22:00 -4°C° 0.1 mm 1 mps 517 mmHg 87%
    23:00 -6°C° 0.1 mm 2 mps 517 mmHg 85%

    18 December, Wednesday

    Time Temperature Precipitation Wind Pressure Humidity
    00:00 -7°C° 0.1 mm 2 mps 517 mmHg 83%
    01:00 -7°C° 0 mm 2 mps 517 mmHg 81%
    02:00 -7°C° 0 mm 2 mps 516 mmHg 79%
    03:00 -8°C° 0 mm 2 mps 516 mmHg 78%
    04:00 -8°C° 0 mm 2 mps 516 mmHg 76%
    05:00 -8°C° 0 mm 2 mps 516 mmHg 73%
    06:00 -8°C° 0 mm 2 mps 516 mmHg 71%
    07:00 -4°C° 0 mm 1 mps 518 mmHg 64%
    08:00 -1°C° 0 mm 1 mps 520 mmHg 58%
    09:00 +2°C° 0 mm 1 mps 522 mmHg 51%
    10:00 +3°C° 0 mm 1 mps 522 mmHg 50%
    11:00 +4°C° 0 mm 1 mps 522 mmHg 49%
    12:00 +4°C° 0 mm 2 mps 523 mmHg 47%
    13:00 +4°C° 0 mm 2 mps 522 mmHg 52%
    14:00 +4°C° 0 mm 2 mps 522 mmHg 57%
    15:00 +4°C° 0 mm 2 mps 521 mmHg 62%
    16:00 +1°C° 0 mm 2 mps 520 mmHg 72%
    17:00 0°C° 0 mm 1 mps 519 mmHg 82%
    18:00 -2°C° 0 mm 1 mps 518 mmHg 92%
    19:00 -2°C° 0 mm 1 mps 518 mmHg 86%
    20:00 -2°C° 0 mm 1 mps 518 mmHg 81%
    21:00 -2°C° 0 mm 1 mps 518 mmHg 76%
    22:00 -2°C° 0 mm 1 mps 518 mmHg 75%
    23:00 -3°C° 0 mm 1 mps 518 mmHg 73%
    Show more